Location: Northern Prairie Star Party
(53.2167°N, 112.5333°W)
Time: 13:08:15
(UTC-07:00)

Daily predictions for brighter satellites

Satellite Brightness Start Highest point End
(mag) Time Altitude Azimuth Time Altitude Azimuth Time Altitude Azimuth
Cosmos 1697 Rocket 4.2 17:22:50 10° W 17:27:44 29° NW 17:32:41 10° NNE
Cosmos 2333 Rocket 3.9 17:25:49 10° SE 17:28:36 14° E 17:31:24 10° ENE
ATLAS 5 CENTAUR R/B 3.2 17:25:58 10° WNW 17:30:35 31° N 17:35:39 10° NE
CORIOLIS 4.1 17:28:13 10° SSE 17:33:31 66° ENE 17:38:52 10° NNW
Okean 3 Rocket 3.6 17:29:08 10° S 17:33:36 86° E 17:38:08 10° NNE
Cosmos 1328 Rocket 3.8 17:32:41 10° N 17:37:00 48° ENE 17:41:18 10° SSE
USA 238 DEB 4.2 17:33:09 10° WSW 17:40:05 60° NNW 17:47:04 10° NE
USA 238 4.2 17:33:14 10° WSW 17:40:11 60° NNW 17:47:10 10° NE
CZ-2C R/B 3.8 17:35:25 10° NNE 17:40:13 80° ESE 17:45:01 10° SSW
Cosmos 2278 Rocket 2.4 17:34:46 10° NNW 17:40:19 50° NE 17:45:50 10° SE
GEOS 3 Rocket 4.5 17:36:30 10° NE 17:41:20 42° NNW 17:46:14 10° W
Tsikada Rocket 4.2 17:35:21 10° SSE 17:41:31 54° E 17:47:45 10° NNE
Cosmos 2219 Rocket 3.4 17:37:26 10° SSE 17:41:37 22° ESE 17:45:48 10° NE
Cosmos 1908 3.2 17:37:46 10° N 17:41:39 67° ENE 17:45:31 10° SSE
Cosmos 2322 Rocket 2.7 17:36:06 10° SW 17:41:45 62° NW 17:47:23 10° NNE
Cosmos 2285 Rocket 4.3 17:37:18 10° SW 17:43:38 72° WNW 17:50:02 10° NNE
Cosmos 1515 Rocket 3.9 17:39:39 10° N 17:43:58 43° ENE 17:48:13 10° SE
Cosmos 2151 4.5 17:46:51 10° SE 17:49:35 17° E 17:52:20 10° NE
Cosmos 1943 Rocket 4.1 17:47:37 10° NNW 17:50:03 13° N 17:52:32 10° NE
Cosmos 1844 3.7 17:45:44 10° NNW 17:51:32 84° ENE 17:57:20 10° SSE
SJ-7 4.4 17:47:34 10° SSE 17:51:37 89° NE 17:55:39 10° NNW
ATLAS 3B R/B 3.5 17:45:54 10° W 17:52:58 45° NNW 17:59:38 10° NE
Cosmos 1151 Rocket 3.5 17:49:20 10° N 17:53:20 37° ENE 17:57:19 10° SE
Cosmos 1674 3.0 17:52:22 10° SSE 17:56:02 46° E 17:59:46 10° NNE
Thor Agena Rocket 3.8 17:51:19 10° NNE 17:56:28 50° E 18:01:31 10° S
EO 1 Del DPAF 4.3 17:53:08 10° N 17:56:53 47° WNW 18:00:35 10° SW
USA 215 3.5 17:51:55 10° SE 17:58:30 75° SSW 18:05:05 10° WNW
Cosmos 1076 Rocket 3.5 17:55:58 10° SSW 18:00:14 85° W 18:04:34 10° N
Cosmos 1484 Rocket 2.8 17:56:45 10° SSE 18:00:38 60° ENE 18:04:35 10° N
Cosmos 1125 Rocket 3.5 17:55:32 10° NNW 18:00:44 64° ENE 18:05:54 10° SE
Cosmos 1634 Rocket 4.0 17:55:06 10° N 18:01:17 61° ENE 18:07:22 10° SSE
SPOT 3 Rocket 3.8 17:57:25 10° S 18:02:34 76° WSW 18:07:47 10° NNW
BREEZE M DEB (TANK) 3.5 17:59:16 10° W 18:03:06 32° SSW 18:05:14 10° SE
Cosmos 1814 Rocket 4.1 17:59:13 10° SSW 18:04:30 67° ESE 18:09:51 10° NNE
CZ-4C R/B 3.4 17:59:03 10° WNW 18:04:32 35° N 18:09:59 13° NE
Cosmos 1500 Rocket 4.2 18:01:16 10° SSE 18:05:10 34° E 18:09:08 10° NNE
MSX 3.9 17:59:35 10° SSE 18:05:19 85° WSW 18:11:07 10° NNW
Cosmos 1300 3.0 18:02:24 10° N 18:06:06 42° ENE 18:09:45 10° SE
NOSS 3-2 (A) 3.8 18:00:03 10° WSW 18:06:19 69° NW 18:12:51 12° NE
Cosmos 1726 2.4 18:04:11 10° N 18:07:50 45° ENE 18:11:27 10° SSE
COSMOS 2428 2.9 18:03:01 10° S 18:08:34 53° ESE 18:13:58 11° NE
NOAA 12 4.4 18:04:28 10° SE 18:09:24 43° ENE 18:14:23 10° N
NOSS 3-2 (C) 3.7 18:04:02 10° SW 18:10:18 76° NW 18:16:42 13° NE
Cosmos 2369 Rocket 3.8 18:06:54 10° NNW 18:10:43 18° NNE 18:13:01 14° NE
Cosmos 2237 Rocket 3.3 18:07:59 10° SSE 18:12:17 23° ESE 18:14:53 17° ENE
ALOS 3.3 18:09:54 10° ESE 18:13:38 24° ENE 18:17:22 10° N
Cosmos 2237 4.2 18:08:02 10° SSW 18:13:41 67° ESE 18:19:16 11° NE
Lacrosse 5 rocket 1.2 18:11:41 10° WNW 18:15:23 76° SSW 18:19:16 10° SE
Transit 2A Rocket 4.4 18:12:52 10° NW 18:17:19 70° NE 18:21:37 10° SE
SL-16 R/B 4.1 18:15:32 10° ESE 18:16:18 11° ESE 18:16:18 11° ESE
IDEFIX/ARIANE 42P 3.7 18:13:56 10° S 18:18:58 48° W 18:24:04 10° NNW
Spot 2 Rocket 4.3 18:14:56 10° ESE 18:19:13 28° ENE 18:23:28 10° N
Cosmos 2297 3.9 18:13:50 10° NNW 18:19:23 49° NE 18:24:55 10° SE
COSMOS 2455 4.1 18:15:11 10° W 18:20:38 34° NNW 18:25:57 11° NE
Cosmos 371 Rocket 3.9 18:18:00 10° S 18:22:23 36° ESE 18:25:21 18° NE
CZ-4 R/B 3.2 18:19:00 10° SSW 18:22:32 33° W 18:26:08 10° NNW
Cosmos 841 Rocket 3.6 18:17:49 10° S 18:22:58 56° ESE 18:27:43 12° NNE
FREGAT/IRIS 3.4 18:25:10 29° E 18:25:33 30° ENE 18:28:18 10° N
Lacrosse 4 Rocket 2.5 18:27:00 10° NNW 18:30:25 25° NE 18:31:06 24° NE
Cosmos 468 Rocket 4.3 18:25:25 10° SW 18:30:34 67° WNW 18:35:44 10° NNE
Meteor 1-28 Rocket 3.7 18:29:53 24° NE 18:31:28 35° E 18:34:55 10° SSE
Cosmos 1766 Rocket 4.3 18:28:42 10° SSW 18:33:05 55° WNW 18:37:28 10° N
Cosmos 2084 4.4 18:31:20 10° S 18:34:24 23° ESE 18:34:44 23° ESE
SL-19 R/B 4.5 18:29:08 10° SE 18:34:43 50° ENE 18:40:06 10° N
Resurs 01 Rocket 2.3 18:31:55 15° ESE 18:35:02 32° ENE 18:39:00 10° N
Cosmos 2322 4.1 18:29:47 10° SW 18:35:26 65° NW 18:40:58 11° NNE
COSMO-SKYMED 1 2.6 18:31:56 10° NNE 18:36:16 57° ESE 18:40:31 10° S
Cosmos 1844 Rocket 4.1 18:32:23 10° NW 18:37:40 41° WSW 18:42:53 10° S
Cosmos 1707 Rocket 4.0 18:35:11 10° N 18:39:15 37° ENE 18:43:17 10° SE
Cosmos 1328 3.8 18:35:43 10° S 18:39:35 58° E 18:42:44 15° NNE
CENTAUR R/B 2.6 18:34:19 10° SW 18:40:35 73° SE 18:45:39 20° NE
Lacrosse 5 2.0 18:36:11 10° WSW 18:41:15 71° NNW 18:43:59 27° ENE
Cosmos 44 Rocket 3.9 18:36:39 10° S 18:41:22 39° ESE 18:43:12 28° ENE
SL-16 R/B 3.7 18:37:10 10° WSW 18:42:12 31° NW 18:47:16 10° NNE
Cosmos 2228 Rocket 4.4 18:38:18 10° NNW 18:42:29 42° W 18:46:39 10° SSW
Resurs 1-3 4.2 18:46:39 33° E 18:47:11 34° ENE 18:51:10 10° N
Cosmos 2333 4.1 18:44:18 10° SSW 18:49:55 85° ESE 18:54:09 18° NNE
SJ-6B 2.8 18:48:03 10° SSE 18:52:07 72° ENE 18:56:16 10° N
Cosmos 836 Rocket 4.5 18:47:33 10° S 18:52:43 64° ESE 18:56:04 22° NE
Cosmos 2279 Rocket 3.9 18:47:19 10° N 18:53:35 84° E 18:59:49 10° SSE
Cosmos 1900 4.2 18:48:39 10° NW 18:53:37 76° NE 18:56:53 22° SE
FengYun 1-2 T 4.2 18:50:32 10° SE 18:55:58 57° ENE 19:01:23 10° N
Cosmos 2360 Rocket 3.1 18:52:47 10° WSW 18:58:11 45° NW 19:03:01 13° NNE
Cosmos 1980 3.9 18:53:49 10° S 18:59:16 51° ESE 19:01:38 32° NE
Cosmos 2058 2.9 18:56:04 10° S 19:00:05 57° E 19:01:14 41° NE
Cosmos 1980 Rocket 4.3 18:56:34 10° WNW 19:00:11 17° NNW 19:03:48 10° NNE
Helios 1A 4.3 19:08:12 26° NNE 19:08:12 26° NNE 19:10:25 10° N
FENGYUN 3A 3.5 19:04:29 10° SSE 19:09:47 66° ENE 19:15:09 10° N
Cosmos 1763 Rocket 4.0 19:05:44 10° SW 19:10:53 59° WNW 19:14:54 16° NNE
Cosmos 2180 Rocket 4.4 19:05:38 10° N 19:11:48 87° W 19:18:00 10° S
Cosmos 2333 Rocket 2.1 19:06:14 10° SSW 19:11:51 70° ESE 19:14:23 34° NE
Meteor 2-10 4.3 19:07:51 10° NNW 19:12:53 66° W 19:17:58 10° S
Orbus 7S? 3.9 19:09:58 10° WNW 19:13:28 81° SSW 19:16:33 30° SE
ATLAS 5 CENTAUR R/B 3.1 19:11:47 10° NW 19:16:43 32° NNE 19:17:47 30° NE
Nadezhda 4 Rocket 4.1 19:15:01 10° SSE 19:21:03 51° E 19:27:08 10° NNE
Cosmos 1340 Rocket 3.3 19:18:16 10° S 19:21:05 44° SSE 19:21:05 44° SSE
Cosmos 1455 3.9 19:19:16 10° N 19:20:44 22° N 19:20:44 22° N
DNEPR-1 R/B 4.2 19:17:06 10° SSW 19:23:36 69° SE 19:25:03 49° ENE
Cosmos 2278 Rocket 3.6 19:19:06 10° NW 19:24:21 39° WSW 19:29:33 10° S
SKYMED 2 4.3 19:20:14 11° N 19:24:23 53° WNW 19:28:36 10° SW
Cosmos 2219 Rocket 2.2 19:19:18 10° SW 19:24:57 81° WNW 19:27:46 31° NNE
Cosmos 2151 3.3 19:22:16 10° SSW 19:26:26 62° WNW 19:29:05 22° N
Cosmos 2322 Rocket 4.2 19:22:44 10° WNW 19:26:58 21° NNW 19:30:40 12° NNE
SL-14 R/B 3.9 19:26:56 10° SSW 19:30:48 55° WNW 19:32:35 29° N
Cosmos 540 Rocket 3.3 19:25:52 10° SSW 19:31:03 87° ESE 19:32:33 48° NNE
Cosmos 332 Rocket 4.5 19:27:36 10° SW 19:32:20 52° WNW 19:34:56 25° N
Cosmos 1805 Rocket 3.8 19:30:43 10° S 19:34:22 59° S 19:34:22 59° S
Cosmos 1943 Rocket 3.6 19:31:24 10° NNW 19:34:47 23° NNE 19:34:47 23° NNE
Cosmos 783 Rocket 4.4 19:31:13 10° SSW 19:36:32 78° ESE 19:37:18 64° NE
Spot 1 4.2 19:43:51 73° NNW 19:43:51 73° NNW 19:47:56 10° NNW
ATLAS 3B R/B 3.6 19:38:43 10° WNW 19:45:18 36° N 19:46:53 32° NNE
ALOS 2.7 19:46:08 10° S 19:50:45 59° W 19:55:24 10° NNW
COSMOS 2428 3.9 19:47:43 10° WSW 19:53:04 39° NW 19:56:00 23° N
Lacrosse 5 rocket 3.5 19:51:27 10° W 19:54:09 19° SW 19:55:10 17° SSW
Cosmos 44 3.5 19:49:09 10° SW 19:53:37 65° SSW 19:53:37 65° SSW
CZ-4C R/B 3.3 19:48:40 10° NW 19:54:39 39° NNE 19:55:11 39° NNE
Cosmos 2237 Rocket 2.2 19:50:08 10° SW 19:55:47 77° WNW 19:56:46 61° N
Cosmos 2369 Rocket 2.9 19:50:43 10° NNW 19:54:50 39° N 19:54:50 39° N
Spot 2 Rocket 4.0 19:52:56 10° S 19:57:54 57° WSW 20:02:54 10° NNW
Cosmos 1867 4.4 19:54:25 10° NW 19:58:34 39° N 19:58:34 39° N
SL-16 R/B 3.1 19:54:53 10° SSW 19:58:16 36° S 19:58:16 36° S
Cosmos 371 Rocket 4.4 19:58:15 10° SW 20:02:48 40° NW 20:04:03 34° NNW
COSMOS 2455 4.5 20:03:47 10° NW 20:08:23 22° N 20:09:06 21° N
Lacrosse 4 Rocket 3.1 20:05:27 10° NW 20:07:28 28° NW 20:07:28 28° NW
Resurs 01 Rocket 2.9 20:09:28 25° SSW 20:11:28 39° W 20:15:39 10° NNW
NOSS 0 Rocket 4.3 20:09:16 10° SW 20:15:25 59° NW 20:16:52 47° N
Cosmos 44 Rocket 4.3 20:17:51 10° WSW 20:21:57 47° WNW 20:21:57 47° WNW
Lacrosse 5 3.0 20:19:41 10° WNW 20:23:12 40° NW 20:23:12 40° NW
SL-16 R/B 4.4 20:25:08 10° NW 20:28:14 15° NNW 20:29:25 14° N
CENTAUR R/B 3.4 20:25:23 10° W 20:31:45 48° NNW 20:32:51 45° N
Cosmos 2360 Rocket 4.3 20:40:02 10° WNW 20:43:41 17° NNW 20:44:48 16° N
Cosmos 2333 Rocket 3.7 20:51:34 10° WSW 20:56:26 32° NW 20:56:26 32° NW
ATLAS 5 CENTAUR R/B 3.8 20:56:40 10° NW 20:59:21 29° NW 20:59:21 29° NW
Cosmos 2219 Rocket 4.1 21:05:13 10° W 21:09:31 24° NW 21:09:31 24° NW
Cosmos 1943 Rocket 4.4 21:14:54 10° NNW 21:16:19 18° NNW 21:16:19 18° NNW
ATLAS 3B R/B 4.1 21:30:26 10° NW 21:34:08 31° NNW 21:34:08 31° NNW
Cosmos 2369 Rocket 4.5 21:34:57 10° NW 21:36:39 19° NW 21:36:39 19° NW
CZ-4C R/B 4.2 21:37:22 10° NW 21:40:22 30° NW 21:40:22 30° NW
